Disclaimer

Please do not use the information listed here in-flight or in-navigation, as they are not provided to us by the airports but are provided by volunteers, so they might be outdated.

Search


Regions


Airport information page

Radio informations:
443 SQUADRON - 349.3 MHz
ESSO - 122.95 MHz
Automatic Terminal Information Service (ATIS) - 118.8 MHz
Approach/Departure (APP/DEP) - 127.8 MHz

Airport informations:
Latitude: 48° 38' 49.00" N
Longitude: 123° 25' 33.00" W
Elevation: 63 feet - 19 meters
Operating hours: 24 hour operations
Operating agency: Civil government, landing fees and diplomatic clearance may be required
Timezone: UTC-8(-7DT) - Second Sunday in March at 0200 to first Sunday in November at 0200 local time (Exception Arizona and that portion of Indiana in the Eastern Time Zone)
Fuel: Jet A1, without icing nhibitor.

100/130 MIL Spec, low lead, aviation gasoline (BLUE)

Runway information:
02/20 - 5026 x 200 feet< - >1532 x 61 meters
09/27 - 7000 x 200 feet< - >2134 x 61 meters
13/31 - 5003 x 200 feet< - >1525 x 61 meters

Recent METARs:
CYYJ 200500Z 13005KT 070V150 15SM FEW045 FEW120 BKN240 06/03 A3013 RMK SC1AC1CI4 SC TR SLP206
CYYJ 200500Z 13005KT 070V150 15SM FEW045 FEW120 BKN240 06/03 A3013 RMK SC1AC1CI4 SC TR SLP206
CYYJ 200614Z 28006KT 15SM -SHRA SCT030TCU BKN070 OVC240 05/04 A3015 RMK TCU3AC3CI2 SLP212

Airport on the map: